QPF
0.00 0.00 0.01 0.05 0.08 0.14 0.23 0.31 0.31 0.19 0.14 0.11 0.09 0.07 0.07 0.05 0.07 0.04 0.03 0.01 0.00 0.00 0.00 0.00 0.01 0.01 0.00 0.00 0.01 0.01 0.01 0.01 0.01 0.01 0.01 0.01 0.01 0.01 0.00 0.00 0.00 0.00 0.00 0.00 0.00 0.00 0.00 0.00 0.00
0.00 0.00 0.01 0.05 0.10 0.20 0.27 0.27 0.28 0.18 0.16 0.12 0.07 0.04 0.03 0.01 0.00 0.01 0.01 0.01 0.00 0.00 0.00 0.00 0.00 0.00 0.00 0.00 0.01 0.01 0.01 0.01 0.01 0.01 0.01 0.01 0.01 0.01 0.00 0.00 0.00 0.00 0.00 0.00 0.00 0.00 0.00 0.00 0.00
0.00 0.00 0.02 0.05 0.12 0.21 0.25 0.24 0.22 0.14 0.16 0.20 0.11 0.03 0.01 0.00 0.00 0.00 0.00 0.00 0.00 0.00 0.00 0.00 0.00 0.00 0.00 0.00 0.00 0.01 0.01 0.01 0.01 0.01 0.01 0.01 0.01 0.00 0.00 0.00 0.00 0.00 0.00 0.00 0.00 0.00 0.00 0.00 0.00
0.00 0.01 0.03 0.05 0.09 0.15 0.16 0.21 0.21 0.21 0.30 0.30 0.19 0.06 0.01 0.01 0.00 0.00 0.00 0.00 0.00 0.00 0.00 0.00 0.00 0.00 0.00 0.00 0.00 0.00 0.00 0.00 0.01 0.01 0.01 0.00 0.01 0.00 0.00 0.00 0.00 0.00 0.00 0.00 0.00 0.00 0.00 0.00 0.00
0.00 0.01 0.02 0.05 0.07 0.11 0.12 0.15 0.23 0.24 0.42 0.38 0.21 0.10 0.03 0.01 0.01 0.00 0.01 0.00 0.00 0.00 0.00 0.00 0.00 0.00 0.00 0.00 0.00 0.00 0.00 0.00 0.00 0.01 0.01 0.00 0.01 0.01 0.01 0.00 0.00 0.00 0.00 0.00 0.00 0.00 0.00 0.00 0.00
0.00 0.00 0.01 0.02 0.03 0.05 0.07 0.11 0.18 0.27 0.46 0.47 0.28 0.19 0.07 0.03 0.02 0.02 0.01 0.01 0.00 0.00 0.00 0.00 0.00 0.00 0.00 0.00 0.00 0.00 0.00 0.00 0.00 0.01 0.01 0.01 0.01 0.01 0.01 0.01 0.01 0.01 0.01 0.01 0.01 0.01 0.00 0.00 0.00
0.00 0.00 0.00 0.00 0.01 0.02 0.04 0.08 0.18 0.30 0.47 0.60 0.42 0.27 0.10 0.07 0.06 0.03 0.02 0.02 0.01 0.00 0.00 0.00 0.00 0.00 0.00 0.00 0.00 0.00 0.00 0.00 0.00 0.01 0.01 0.00 0.00 0.01 0.01 0.02 0.02 0.02 0.02 0.02 0.02 0.01 0.01 0.01 0.01
0.00 0.00 0.00 0.00 0.00 0.01 0.02 0.05 0.14 0.26 0.40 0.57 0.45 0.34 0.16 0.11 0.12 0.08 0.05 0.03 0.02 0.01 0.01 0.00 0.00 0.00 0.00 0.01 0.00 0.01 0.00 0.00 0.01 0.01 0.01 0.01 0.01 0.02 0.04 0.05 0.05 0.05 0.03 0.03 0.04 0.04 0.03 0.03 0.01
0.00 0.00 0.00 0.00 0.00 0.01 0.01 0.05 0.16 0.26 0.30 0.51 0.65 0.39 0.19 0.14 0.19 0.14 0.07 0.05 0.03 0.02 0.02 0.01 0.01 0.01 0.01 0.02 0.02 0.02 0.02 0.02 0.02 0.02 0.03 0.03 0.02 0.04 0.06 0.08 0.09 0.08 0.06 0.05 0.05 0.05 0.04 0.03 0.02
0.00 0.00 0.00 0.00 0.00 0.01 0.02 0.05 0.12 0.31 0.46 0.56 0.70 0.46 0.17 0.15 0.21 0.22 0.11 0.05 0.04 0.03 0.03 0.03 0.03 0.03 0.04 0.05 0.04 0.05 0.07 0.07 0.07 0.06 0.06 0.04 0.04 0.04 0.04 0.06 0.07 0.07 0.07 0.08 0.07 0.07 0.05 0.03 0.02
0.00 0.00 0.00 0.00 0.00 0.01 0.04 0.06 0.07 0.21 0.54 0.66 0.74 0.47 0.25 0.17 0.19 0.25 0.18 0.07 0.04 0.04 0.03 0.04 0.05 0.04 0.05 0.08 0.07 0.07 0.09 0.07 0.07 0.09 0.09 0.06 0.04 0.04 0.06 0.06 0.06 0.05 0.05 0.05 0.05 0.06 0.04 0.03 0.03
0.00 0.00 0.00 0.00 0.00 0.01 0.02 0.07 0.13 0.18 0.34 0.42 0.36 0.23 0.19 0.20 0.16 0.27 0.19 0.08 0.05 0.05 0.04 0.04 0.05 0.04 0.05 0.06 0.08 0.05 0.04 0.05 0.04 0.05 0.04 0.03 0.02 0.02 0.04 0.03 0.04 0.06 0.08 0.07 0.05 0.04 0.04 0.04 0.04
0.00 0.00 0.00 0.00 0.00 0.01 0.03 0.06 0.10 0.16 0.25 0.27 0.22 0.21 0.26 0.27 0.22 0.27 0.22 0.12 0.08 0.06 0.05 0.04 0.04 0.04 0.04 0.04 0.03 0.02 0.03 0.02 0.01 0.01 0.02 0.02 0.01 0.01 0.01 0.01 0.01 0.02 0.04 0.06 0.07 0.05 0.04 0.04 0.04
0.00 0.00 0.00 0.00 0.00 0.01 0.03 0.06 0.10 0.29 0.28 0.27 0.34 0.40 0.39 0.47 0.35 0.32 0.26 0.16 0.10 0.07 0.05 0.05 0.04 0.03 0.03 0.02 0.02 0.02 0.02 0.01 0.01 0.01 0.01 0.01 0.01 0.01 0.01 0.01 0.01 0.01 0.01 0.02 0.02 0.03 0.03 0.04 0.05
0.00 0.00 0.00 0.00 0.01 0.01 0.04 0.11 0.25 0.44 0.42 0.36 0.46 0.47 0.52 0.68 0.52 0.42 0.33 0.19 0.10 0.07 0.06 0.05 0.04 0.03 0.02 0.02 0.02 0.01 0.01 0.00 0.00 0.00 0.00 0.00 0.00 0.00 0.00 0.00 0.01 0.01 0.01 0.02 0.01 0.02 0.01 0.01 0.02
0.00 0.01 0.01 0.01 0.01 0.02 0.05 0.12 0.30 0.51 0.54 0.48 0.53 0.64 0.60 0.67 0.52 0.37 0.31 0.20 0.10 0.06 0.05 0.04 0.03 0.03 0.02 0.01 0.01 0.01 0.00 0.00 0.00 0.00 0.00 0.00 0.00 0.00 0.00 0.00 0.00 0.00 0.01 0.01 0.01 0.01 0.01 0.01 0.01
0.01 0.02 0.03 0.01 0.01 0.03 0.04 0.06 0.11 0.19 0.48 0.69 0.76 0.76 0.56 0.50 0.49 0.34 0.23 0.14 0.08 0.05 0.04 0.02 0.02 0.02 0.01 0.00 0.00 0.00 0.00 0.00 0.00 0.00 0.00 0.00 0.00 0.00 0.00 0.00 0.00 0.00 0.00 0.00 0.00 0.00 0.00 0.01 0.01
0.01 0.02 0.03 0.03 0.03 0.03 0.04 0.06 0.08 0.10 0.31 0.50 0.51 0.69 0.58 0.45 0.42 0.37 0.24 0.14 0.08 0.04 0.03 0.01 0.01 0.01 0.00 0.00 0.00 0.00 0.00 0.00 0.00 0.00 0.00 0.00 0.00 0.00 0.00 0.00 0.00 0.00 0.00 0.00 0.00 0.00 0.00 0.00 0.01
0.01 0.02 0.02 0.03 0.04 0.04 0.05 0.07 0.08 0.11 0.15 0.16 0.20 0.32 0.36 0.31 0.27 0.33 0.26 0.18 0.09 0.03 0.01 0.00 0.00 0.00 0.00 0.00 0.00 0.00 0.01 0.00 0.00 0.00 0.00 0.00 0.00 0.00 0.00 0.00 0.00 0.00 0.00 0.00 0.00 0.00 0.00 0.00 0.00
0.01 0.01 0.02 0.02 0.03 0.05 0.09 0.11 0.10 0.11 0.17 0.18 0.19 0.25 0.20 0.17 0.17 0.22 0.25 0.15 0.08 0.05 0.02 0.00 0.00 0.00 0.00 0.00 0.00 0.00 0.00 0.00 0.00 0.00 0.00 0.00 0.00 0.00 0.00 0.00 0.00 0.00 0.00 0.00 0.00 0.00 0.00 0.00 0.00
0.01 0.01 0.01 0.01 0.02 0.04 0.06 0.09 0.09 0.10 0.16 0.22 0.20 0.17 0.14 0.12 0.12 0.12 0.13 0.16 0.17 0.12 0.05 0.01 0.01 0.01 0.01 0.01 0.00 0.00 0.00 0.00 0.00 0.00 0.00 0.00 0.00 0.00 0.00 0.00 0.00 0.00 0.00 0.00 0.00 0.00 0.00 0.00 0.00
0.01 0.01 0.01 0.01 0.03 0.04 0.04 0.06 0.06 0.09 0.12 0.11 0.08 0.08 0.09 0.08 0.08 0.10 0.12 0.08 0.14 0.16 0.09 0.05 0.03 0.02 0.01 0.01 0.00 0.00 0.00 0.00 0.00 0.00 0.00 0.00 0.00 0.00 0.00 0.00 0.00 0.00 0.00 0.00 0.00 0.00 0.00 0.00 0.00
0.01 0.01 0.01 0.02 0.03 0.05 0.03 0.04 0.04 0.03 0.04 0.02 0.02 0.08 0.08 0.06 0.05 0.05 0.06 0.04 0.04 0.05 0.06 0.05 0.04 0.01 0.01 0.01 0.00 0.00 0.00 0.00 0.00 0.00 0.00 0.00 0.00 0.00 0.00 0.00 0.00 0.00 0.00 0.00 0.00 0.00 0.00 0.00 0.00
0.01 0.01 0.02 0.03 0.05 0.06 0.03 0.04 0.04 0.02 0.01 0.01 0.01 0.03 0.04 0.03 0.03 0.03 0.03 0.02 0.01 0.01 0.01 0.01 0.01 0.01 0.01 0.00 0.00 0.00 0.00 0.00 0.00 0.00 0.00 0.00 0.00 0.00 0.00 0.00 0.00 0.00 0.00 0.00 0.00 0.00 0.00 0.00 0.00
0.01 0.01 0.03 0.05 0.08 0.09 0.04 0.05 0.02 0.01 0.00 0.00 0.00 0.00 0.01 0.02 0.01 0.01 0.01 0.01 0.00 0.00 0.01 0.00 0.00 0.00 0.00 0.00 0.00 0.00 0.00 0.00 0.00 0.00 0.00 0.00 0.00 0.00 0.00 0.00 0.00 0.00 0.00 0.00 0.00 0.00 0.00 0.00 0.00
0.01 0.01 0.03 0.04 0.07 0.10 0.12 0.12 0.02 0.00 0.00 0.00 0.00 0.01 0.00 0.00 0.00 0.00 0.00 0.00 0.00 0.00 0.00 0.00 0.00 0.00 0.00 0.00 0.00 0.00 0.00 0.00 0.00 0.00 0.00 0.00 0.00 0.00 0.00 0.00 0.00 0.00 0.00 0.00 0.00 0.00 0.00 0.00 0.00
0.01 0.01 0.02 0.03 0.06 0.12 0.17 0.12 0.02 0.00 0.00 0.00 0.00 0.00 0.00 0.00 0.00 0.00 0.00 0.00 0.00 0.00 0.00 0.00 0.00 0.00 0.00 0.00 0.00 0.00 0.00 0.00 0.00 0.00 0.00 0.00 0.00 0.00 0.00 0.00 0.00 0.00 0.00 0.00 0.00 0.00 0.00 0.00 0.00
0.01 0.01 0.02 0.03 0.05 0.11 0.15 0.13 0.05 0.01 0.00 0.00 0.00 0.00 0.00 0.00 0.00 0.00 0.00 0.00 0.00 0.00 0.00 0.00 0.00 0.00 0.00 0.00 0.00 0.00 0.00 0.00 0.00 0.00 0.00 0.00 0.00 0.00 0.00 0.00 0.00 0.00 0.00 0.00 0.00 0.00 0.00 0.00 0.00
0.03 0.02 0.03 0.03 0.03 0.06 0.09 0.08 0.03 0.02 0.01 0.01 0.00 0.00 0.00 0.00 0.00 0.00 0.00 0.00 0.00 0.00 0.00 0.00 0.00 0.00 0.00 0.00 0.00 0.00 0.00 0.00 0.00 0.00 0.00 0.00 0.00 0.00 0.00 0.00 0.00 0.00 0.00 0.00 0.00 0.00 0.00 0.00 0.00
0.03 0.03 0.03 0.03 0.02 0.03 0.06 0.05 0.03 0.02 0.02 0.01 0.00 0.00 0.00 0.00 0.00 0.00 0.00 0.00 0.00 0.00 0.00 0.00 0.00 0.00 0.00 0.00 0.00 0.00 0.00 0.00 0.00 0.00 0.00 0.00 0.00 0.00 0.00 0.00 0.00 0.00 0.00 0.00 0.00 0.00 0.00 0.00 0.00
MSLP
1012.77 1013.67 1014.64 1015.54 1016.26 1016.73 1016.91 1016.80 1016.44 1015.92 1015.34 1014.78 1014.30 1013.94 1013.71 1013.59 1013.54 1013.51 1013.49 1013.44 1013.37 1013.30 1013.26 1013.27 1013.35 1013.51 1013.73 1013.99 1014.26 1014.50 1014.71 1014.88 1015.03 1015.18 1015.34 1015.53 1015.76 1016.00 1016.24 1016.46 1016.63 1016.75 1016.81 1016.82 1016.81 1016.80 1016.80 1016.83 1016.87
1013.30 1014.37 1015.41 1016.29 1016.91 1017.20 1017.15 1016.80 1016.22 1015.51 1014.77 1014.11 1013.57 1013.19 1012.97 1012.89 1012.89 1012.95 1013.02 1013.08 1013.13 1013.18 1013.25 1013.35 1013.50 1013.69 1013.93 1014.19 1014.45 1014.69 1014.90 1015.08 1015.25 1015.40 1015.56 1015.73 1015.92 1016.11 1016.29 1016.45 1016.58 1016.67 1016.72 1016.74 1016.75 1016.77 1016.80 1016.84 1016.89
1013.82 1014.99 1016.05 1016.87 1017.36 1017.48 1017.25 1016.72 1015.99 1015.17 1014.37 1013.67 1013.13 1012.76 1012.55 1012.48 1012.51 1012.60 1012.72 1012.85 1012.97 1013.10 1013.25 1013.41 1013.62 1013.85 1014.10 1014.37 1014.64 1014.89 1015.11 1015.32 1015.50 1015.66 1015.81 1015.95 1016.08 1016.20 1016.32 1016.41 1016.49 1016.55 1016.59 1016.63 1016.67 1016.71 1016.76 1016.82 1016.88
1014.29 1015.48 1016.50 1017.23 1017.58 1017.56 1017.20 1016.58 1015.80 1014.98 1014.20 1013.55 1013.04 1012.70 1012.51 1012.44 1012.46 1012.54 1012.65 1012.79 1012.94 1013.11 1013.30 1013.51 1013.74 1013.99 1014.25 1014.52 1014.80 1015.06 1015.31 1015.53 1015.74 1015.91 1016.05 1016.16 1016.25 1016.32 1016.36 1016.40 1016.43 1016.46 1016.50 1016.55 1016.61 1016.68 1016.75 1016.81 1016.87
1014.67 1015.81 1016.73 1017.32 1017.55 1017.42 1017.00 1016.38 1015.66 1014.93 1014.27 1013.72 1013.30 1013.01 1012.83 1012.73 1012.71 1012.74 1012.81 1012.92 1013.06 1013.23 1013.43 1013.65 1013.88 1014.13 1014.39 1014.65 1014.91 1015.18 1015.44 1015.69 1015.92 1016.11 1016.26 1016.37 1016.43 1016.45 1016.45 1016.44 1016.44 1016.46 1016.49 1016.55 1016.62 1016.70 1016.77 1016.83 1016.87
1014.94 1015.96 1016.71 1017.15 1017.26 1017.08 1016.67 1016.13 1015.55 1014.99 1014.50 1014.11 1013.80 1013.57 1013.40 1013.27 1013.18 1013.14 1013.14 1013.20 1013.31 1013.46 1013.65 1013.86 1014.08 1014.30 1014.52 1014.75 1014.99 1015.24 1015.51 1015.78 1016.03 1016.25 1016.43 1016.54 1016.60 1016.61 1016.59 1016.56 1016.54 1016.54 1016.58 1016.64 1016.71 1016.79 1016.85 1016.88 1016.90
1015.09 1015.91 1016.47 1016.75 1016.76 1016.56 1016.23 1015.83 1015.44 1015.11 1014.83 1014.61 1014.41 1014.24 1014.06 1013.88 1013.72 1013.60 1013.54 1013.55 1013.63 1013.77 1013.94 1014.14 1014.33 1014.51 1014.68 1014.85 1015.05 1015.27 1015.52 1015.79 1016.07 1016.33 1016.54 1016.68 1016.76 1016.78 1016.76 1016.73 1016.70 1016.70 1016.74 1016.79 1016.86 1016.92 1016.96 1016.97 1016.95
1015.07 1015.68 1016.05 1016.18 1016.12 1015.94 1015.71 1015.50 1015.33 1015.22 1015.15 1015.08 1014.98 1014.84 1014.64 1014.41 1014.19 1014.00 1013.90 1013.88 1013.96 1014.10 1014.28 1014.47 1014.63 1014.76 1014.88 1014.98 1015.11 1015.29 1015.51 1015.78 1016.08 1016.36 1016.61 1016.80 1016.91 1016.96 1016.95 1016.92 1016.89 1016.89 1016.92 1016.97 1017.02 1017.06 1017.08 1017.06 1017.00
1014.90 1015.30 1015.49 1015.51 1015.42 1015.29 1015.19 1015.16 1015.20 1015.29 1015.39 1015.44 1015.40 1015.26 1015.04 1014.75 1014.47 1014.25 1014.13 1014.12 1014.22 1014.40 1014.61 1014.81 1014.96 1015.06 1015.12 1015.16 1015.22 1015.34 1015.53 1015.78 1016.08 1016.40 1016.68 1016.90 1017.05 1017.12 1017.13 1017.10 1017.07 1017.06 1017.07 1017.10 1017.15 1017.18 1017.17 1017.13 1017.05
1014.58 1014.80 1014.86 1014.81 1014.73 1014.69 1014.73 1014.87 1015.09 1015.33 1015.54 1015.66 1015.63 1015.47 1015.19 1014.85 1014.53 1014.29 1014.18 1014.21 1014.37 1014.61 1014.88 1015.11 1015.28 1015.36 1015.38 1015.38 1015.39 1015.45 1015.60 1015.84 1016.13 1016.46 1016.76 1017.01 1017.18 1017.26 1017.28 1017.25 1017.20 1017.17 1017.16 1017.18 1017.21 1017.23 1017.22 1017.17 1017.09
1014.15 1014.26 1014.25 1014.18 1014.15 1014.20 1014.38 1014.67 1015.02 1015.36 1015.63 1015.75 1015.69 1015.47 1015.13 1014.74 1014.39 1014.15 1014.07 1014.16 1014.39 1014.71 1015.04 1015.33 1015.53 1015.63 1015.64 1015.61 1015.59 1015.62 1015.74 1015.96 1016.25 1016.57 1016.88 1017.14 1017.31 1017.39 1017.40 1017.35 1017.28 1017.23 1017.20 1017.20 1017.21 1017.22 1017.22 1017.18 1017.10
1013.71 1013.75 1013.72 1013.69 1013.74 1013.90 1014.20 1014.60 1015.03 1015.42 1015.68 1015.76 1015.65 1015.36 1014.95 1014.51 1014.13 1013.90 1013.86 1014.00 1014.29 1014.68 1015.09 1015.44 1015.68 1015.82 1015.85 1015.83 1015.81 1015.83 1015.94 1016.15 1016.42 1016.74 1017.04 1017.28 1017.44 1017.51 1017.50 1017.43 1017.34 1017.25 1017.19 1017.17 1017.17 1017.19 1017.19 1017.16 1017.10
1013.33 1013.35 1013.35 1013.38 1013.53 1013.80 1014.19 1014.67 1015.14 1015.52 1015.75 1015.77 1015.58 1015.21 1014.74 1014.27 1013.88 1013.65 1013.62 1013.80 1014.13 1014.56 1015.01 1015.41 1015.70 1015.89 1015.97 1015.99 1016.00 1016.05 1016.17 1016.37 1016.64 1016.93 1017.21 1017.44 1017.58 1017.63 1017.60 1017.50 1017.38 1017.27 1017.19 1017.15 1017.14 1017.15 1017.16 1017.14 1017.09
1013.09 1013.13 1013.17 1013.29 1013.52 1013.88 1014.35 1014.85 1015.33 1015.68 1015.85 1015.80 1015.54 1015.12 1014.62 1014.12 1013.73 1013.50 1013.47 1013.64 1013.98 1014.40 1014.86 1015.27 1015.60 1015.83 1015.98 1016.06 1016.14 1016.23 1016.39 1016.60 1016.86 1017.13 1017.39 1017.59 1017.71 1017.74 1017.69 1017.59 1017.46 1017.34 1017.24 1017.19 1017.16 1017.16 1017.17 1017.15 1017.09
1013.04 1013.09 1013.18 1013.37 1013.67 1014.10 1014.60 1015.11 1015.55 1015.85 1015.96 1015.86 1015.56 1015.12 1014.62 1014.13 1013.75 1013.52 1013.47 1013.60 1013.89 1014.26 1014.67 1015.07 1015.42 1015.69 1015.90 1016.06 1016.21 1016.38 1016.57 1016.80 1017.05 1017.31 1017.53 1017.70 1017.80 1017.82 1017.78 1017.68 1017.57 1017.45 1017.36 1017.30 1017.27 1017.25 1017.24 1017.21 1017.14
1013.16 1013.21 1013.34 1013.57 1013.93 1014.38 1014.88 1015.36 1015.75 1015.98 1016.04 1015.91 1015.61 1015.20 1014.74 1014.30 1013.95 1013.72 1013.65 1013.72 1013.92 1014.20 1014.53 1014.88 1015.21 1015.51 1015.78 1016.02 1016.25 1016.49 1016.72 1016.97 1017.21 1017.43 1017.62 1017.76 1017.85 1017.87 1017.85 1017.79 1017.70 1017.62 1017.55 1017.50 1017.46 1017.43 1017.40 1017.33 1017.24
1013.37 1013.43 1013.58 1013.85 1014.23 1014.68 1015.14 1015.56 1015.87 1016.04 1016.05 1015.90 1015.64 1015.29 1014.92 1014.57 1014.29 1014.09 1013.99 1013.99 1014.08 1014.25 1014.48 1014.74 1015.04 1015.35 1015.67 1015.98 1016.29 1016.59 1016.86 1017.11 1017.33 1017.51 1017.65 1017.76 1017.83 1017.87 1017.88 1017.87 1017.85 1017.82 1017.79 1017.75 1017.72 1017.68 1017.62 1017.53 1017.40
1013.60 1013.67 1013.86 1014.17 1014.55 1014.98 1015.38 1015.71 1015.92 1016.00 1015.96 1015.81 1015.60 1015.35 1015.10 1014.87 1014.68 1014.53 1014.43 1014.37 1014.37 1014.42 1014.53 1014.71 1014.96 1015.27 1015.63 1016.00 1016.37 1016.71 1017.01 1017.25 1017.42 1017.55 1017.64 1017.71 1017.76 1017.82 1017.87 1017.92 1017.97 1018.01 1018.03 1018.03 1018.01 1017.96 1017.89 1017.78 1017.63
1013.76 1013.89 1014.14 1014.50 1014.90 1015.30 1015.63 1015.84 1015.94 1015.91 1015.79 1015.63 1015.46 1015.31 1015.19 1015.10 1015.03 1014.96 1014.88 1014.80 1014.71 1014.66 1014.68 1014.78 1014.99 1015.29 1015.67 1016.10 1016.51 1016.89 1017.19 1017.40 1017.53 1017.59 1017.61 1017.62 1017.65 1017.72 1017.81 1017.93 1018.05 1018.16 1018.23 1018.28 1018.28 1018.24 1018.16 1018.05 1017.90
1013.80 1014.05 1014.42 1014.87 1015.33 1015.70 1015.95 1016.05 1015.99 1015.82 1015.59 1015.38 1015.22 1015.15 1015.15 1015.21 1015.26 1015.29 1015.26 1015.18 1015.05 1014.93 1014.87 1014.91 1015.09 1015.39 1015.79 1016.25 1016.71 1017.11 1017.40 1017.58 1017.65 1017.63 1017.58 1017.54 1017.53 1017.59 1017.71 1017.88 1018.07 1018.24 1018.37 1018.45 1018.48 1018.45 1018.39 1018.29 1018.17
1013.74 1014.18 1014.74 1015.34 1015.88 1016.27 1016.44 1016.40 1016.16 1015.81 1015.44 1015.12 1014.93 1014.89 1014.97 1015.14 1015.32 1015.45 1015.49 1015.43 1015.30 1015.15 1015.04 1015.05 1015.20 1015.50 1015.93 1016.42 1016.91 1017.33 1017.62 1017.77 1017.78 1017.70 1017.58 1017.47 1017.43 1017.47 1017.60 1017.80 1018.03 1018.24 1018.42 1018.53 1018.58 1018.57 1018.53 1018.47 1018.39
1013.64 1014.33 1015.14 1015.94 1016.60 1017.02 1017.14 1016.95 1016.52 1015.95 1015.38 1014.91 1014.62 1014.54 1014.66 1014.90 1015.17 1015.40 1015.51 1015.50 1015.39 1015.24 1015.12 1015.11 1015.25 1015.57 1016.02 1016.54 1017.06 1017.50 1017.79 1017.93 1017.90 1017.77 1017.60 1017.44 1017.36 1017.38 1017.50 1017.70 1017.94 1018.18 1018.37 1018.50 1018.57 1018.57 1018.55 1018.52 1018.50
1013.57 1014.56 1015.65 1016.68 1017.48 1017.95 1018.00 1017.67 1017.04 1016.23 1015.42 1014.75 1014.31 1014.15 1014.24 1014.51 1014.84 1015.14 1015.33 1015.37 1015.30 1015.17 1015.05 1015.04 1015.19 1015.52 1015.99 1016.54 1017.09 1017.56 1017.88 1018.01 1017.98 1017.83 1017.62 1017.43 1017.32 1017.31 1017.41 1017.60 1017.83 1018.07 1018.25 1018.38 1018.44 1018.45 1018.45 1018.45 1018.47
1013.61 1014.89 1016.25 1017.49 1018.43 1018.93 1018.93 1018.46 1017.61 1016.56 1015.50 1014.61 1014.00 1013.72 1013.75 1014.01 1014.37 1014.72 1014.97 1015.07 1015.04 1014.94 1014.84 1014.84 1014.99 1015.33 1015.81 1016.39 1016.97 1017.47 1017.82 1017.98 1017.97 1017.83 1017.62 1017.42 1017.29 1017.26 1017.34 1017.50 1017.71 1017.92 1018.08 1018.18 1018.23 1018.23 1018.22 1018.24 1018.30
1013.77 1015.28 1016.85 1018.26 1019.29 1019.81 1019.74 1019.12 1018.09 1016.81 1015.53 1014.43 1013.65 1013.24 1013.19 1013.42 1013.79 1014.18 1014.48 1014.64 1014.66 1014.59 1014.52 1014.53 1014.68 1015.02 1015.50 1016.09 1016.69 1017.22 1017.61 1017.82 1017.85 1017.74 1017.56 1017.38 1017.25 1017.21 1017.27 1017.41 1017.58 1017.75 1017.87 1017.94 1017.95 1017.93 1017.91 1017.93 1017.99
1014.01 1015.66 1017.35 1018.83 1019.89 1020.38 1020.22 1019.48 1018.28 1016.83 1015.36 1014.10 1013.18 1012.68 1012.57 1012.77 1013.16 1013.58 1013.94 1014.15 1014.22 1014.20 1014.15 1014.17 1014.32 1014.64 1015.12 1015.70 1016.30 1016.85 1017.27 1017.52 1017.61 1017.55 1017.42 1017.27 1017.17 1017.13 1017.18 1017.29 1017.43 1017.56 1017.65 1017.68 1017.65 1017.60 1017.55 1017.55 1017.60
1014.25 1015.92 1017.60 1019.06 1020.06 1020.46 1020.20 1019.34 1018.03 1016.46 1014.90 1013.55 1012.56 1012.02 1011.89 1012.09 1012.50 1012.98 1013.39 1013.67 1013.80 1013.83 1013.81 1013.84 1013.99 1014.29 1014.74 1015.29 1015.87 1016.41 1016.85 1017.13 1017.26 1017.27 1017.19 1017.09 1017.01 1017.00 1017.05 1017.14 1017.26 1017.36 1017.41 1017.41 1017.35 1017.27 1017.19 1017.16 1017.19
1014.40 1015.97 1017.53 1018.84 1019.70 1019.97 1019.60 1018.65 1017.27 1015.67 1014.10 1012.75 1011.78 1011.25 1011.15 1011.40 1011.86 1012.40 1012.88 1013.23 1013.44 1013.53 1013.56 1013.61 1013.76 1014.03 1014.44 1014.94 1015.48 1015.99 1016.41 1016.70 1016.86 1016.90 1016.88 1016.82 1016.79 1016.80 1016.86 1016.95 1017.06 1017.14 1017.17 1017.15 1017.07 1016.97 1016.87 1016.81 1016.80
1014.38 1015.76 1017.09 1018.18 1018.83 1018.93 1018.44 1017.44 1016.06 1014.51 1013.01 1011.75 1010.87 1010.43 1010.41 1010.73 1011.26 1011.86 1012.42 1012.86 1013.15 1013.31 1013.40 1013.49 1013.64 1013.89 1014.25 1014.69 1015.17 1015.62 1016.00 1016.28 1016.44 1016.50 1016.51 1016.49 1016.49 1016.53 1016.61 1016.71 1016.82 1016.90 1016.93 1016.90 1016.82 1016.71 1016.60 1016.52 1016.48
1014.21 1015.33 1016.37 1017.18 1017.59 1017.51 1016.92 1015.90 1014.58 1013.14 1011.78 1010.68 1009.94 1009.63 1009.71 1010.11 1010.71 1011.38 1012.01 1012.52 1012.89 1013.14 1013.30 1013.43 1013.61 1013.85 1014.17 1014.55 1014.95 1015.33 1015.65 1015.88 1016.02 1016.09 1016.11 1016.12 1016.15 1016.22 1016.32 1016.44 1016.56 1016.64 1016.68 1016.66 1016.59 1016.48 1016.37 1016.28 1016.23
Thickness
5815 5812 5808 5797 5776 5760 5758 5773 5783 5783 5787 5797 5804 5808 5804 5802 5792 5780 5802 5808 5804 5799 5796 5794 5793 5791 5790 5788 5786 5784 5782 5780 5778 5776 5774 5773 5771 5769 5768 5766 5765 5763 5762 5760 5759 5758 5757 5756 5755
5814 5810 5800 5783 5762 5745 5754 5775 5780 5781 5788 5796 5802 5807 5805 5801 5806 5800 5801 5802 5801 5798 5795 5792 5791 5789 5788 5786 5784 5782 5780 5778 5776 5774 5772 5770 5769 5767 5766 5764 5763 5761 5760 5758 5757 5756 5755 5755 5754
5813 5809 5786 5769 5757 5750 5757 5774 5780 5785 5789 5788 5790 5802 5804 5799 5803 5801 5801 5800 5798 5795 5793 5791 5789 5787 5785 5784 5782 5780 5778 5775 5773 5772 5770 5768 5766 5765 5763 5762 5761 5759 5758 5756 5755 5754 5753 5753 5752
5807 5793 5779 5761 5756 5769 5775 5777 5783 5780 5776 5780 5784 5788 5801 5811 5810 5805 5802 5799 5795 5792 5790 5789 5787 5785 5783 5781 5779 5777 5775 5773 5771 5769 5767 5765 5764 5763 5761 5759 5758 5757 5755 5754 5753 5752 5751 5751 5750
5800 5779 5761 5752 5762 5779 5785 5784 5781 5772 5761 5767 5777 5777 5786 5805 5810 5805 5801 5797 5794 5790 5788 5786 5785 5783 5781 5779 5776 5774 5772 5770 5768 5766 5764 5763 5761 5760 5758 5757 5755 5754 5753 5752 5751 5749 5749 5748 5748
5782 5771 5751 5748 5765 5781 5781 5783 5777 5768 5760 5762 5765 5769 5777 5797 5800 5798 5798 5795 5793 5789 5786 5784 5782 5780 5778 5776 5773 5771 5769 5767 5765 5763 5761 5759 5758 5756 5755 5753 5752 5751 5750 5749 5748 5747 5746 5746 5746
5774 5763 5753 5760 5765 5771 5775 5778 5769 5762 5758 5762 5766 5761 5774 5785 5792 5795 5794 5791 5788 5786 5784 5782 5779 5777 5775 5772 5770 5767 5765 5763 5761 5759 5757 5756 5754 5752 5751 5749 5748 5747 5747 5746 5745 5744 5743 5743 5743
5784 5764 5755 5756 5762 5764 5771 5771 5768 5763 5758 5768 5772 5763 5768 5778 5787 5788 5787 5785 5783 5782 5780 5779 5777 5774 5771 5769 5766 5764 5761 5759 5757 5755 5753 5752 5750 5749 5747 5746 5745 5744 5744 5743 5742 5741 5740 5740 5739
5788 5754 5743 5754 5762 5763 5768 5764 5761 5766 5762 5765 5771 5774 5781 5785 5783 5778 5776 5776 5776 5777 5776 5775 5773 5770 5767 5765 5763 5760 5758 5755 5753 5751 5750 5748 5746 5744 5743 5742 5741 5740 5740 5740 5738 5737 5737 5736 5736
5774 5745 5754 5772 5776 5769 5769 5764 5759 5757 5753 5756 5765 5775 5782 5780 5776 5770 5769 5768 5770 5771 5772 5771 5769 5766 5764 5763 5760 5757 5754 5751 5749 5747 5746 5744 5742 5740 5738 5738 5737 5737 5736 5735 5734 5734 5733 5733 5733
5775 5760 5771 5779 5781 5777 5767 5763 5763 5754 5748 5756 5762 5769 5776 5774 5770 5767 5765 5768 5769 5770 5770 5768 5766 5764 5761 5759 5756 5753 5750 5747 5745 5743 5741 5739 5737 5735 5734 5733 5733 5732 5732 5731 5731 5730 5729 5729 5729
5778 5777 5781 5778 5780 5774 5767 5761 5756 5754 5755 5764 5768 5772 5771 5767 5764 5764 5763 5765 5767 5767 5766 5765 5764 5762 5758 5756 5753 5749 5746 5743 5741 5739 5737 5735 5733 5731 5729 5729 5728 5728 5728 5727 5727 5726 5726 5725 5725
5779 5779 5782 5779 5775 5772 5766 5758 5754 5749 5757 5761 5762 5762 5762 5760 5760 5762 5762 5762 5763 5762 5761 5761 5761 5758 5755 5753 5750 5746 5743 5741 5738 5736 5733 5731 5729 5727 5726 5725 5724 5724 5724 5724 5723 5722 5722 5722 5722
5783 5783 5780 5777 5773 5769 5760 5751 5748 5745 5752 5750 5750 5749 5751 5752 5755 5756 5755 5754 5757 5758 5757 5756 5755 5754 5752 5750 5747 5743 5740 5738 5735 5732 5730 5728 5726 5724 5722 5721 5721 5720 5720 5719 5719 5718 5718 5718 5718
5789 5776 5772 5772 5770 5763 5758 5739 5738 5743 5745 5743 5742 5741 5742 5744 5749 5752 5754 5753 5754 5755 5754 5752 5751 5750 5748 5746 5744 5741 5738 5735 5732 5729 5728 5726 5723 5722 5720 5718 5717 5716 5716 5716 5716 5715 5714 5714 5714
5778 5763 5752 5763 5766 5763 5750 5725 5735 5739 5738 5734 5735 5736 5735 5738 5744 5751 5752 5750 5750 5751 5750 5751 5750 5746 5744 5742 5740 5738 5735 5732 5729 5727 5725 5723 5721 5719 5717 5715 5713 5712 5712 5712 5711 5710 5709 5709 5709
5756 5745 5746 5756 5766 5761 5746 5727 5736 5740 5736 5732 5731 5730 5732 5732 5736 5743 5747 5747 5747 5748 5747 5746 5745 5743 5741 5739 5738 5735 5733 5729 5727 5724 5722 5720 5718 5716 5714 5712 5710 5709 5708 5707 5707 5705 5704 5704 5704
5745 5746 5749 5749 5759 5757 5742 5731 5735 5739 5736 5731 5729 5729 5731 5730 5733 5739 5742 5745 5745 5745 5745 5744 5742 5740 5739 5737 5734 5731 5728 5726 5724 5722 5720 5718 5715 5713 5711 5708 5706 5705 5704 5703 5702 5701 5701 5700 5700
5767 5755 5748 5753 5761 5752 5740 5734 5733 5736 5733 5729 5726 5727 5729 5731 5733 5736 5738 5741 5742 5741 5742 5742 5740 5738 5737 5733 5730 5726 5723 5722 5720 5719 5717 5715 5713 5710 5708 5705 5703 5702 5699 5698 5698 5697 5696 5695 5696
5770 5755 5749 5752 5760 5751 5738 5735 5737 5735 5732 5731 5730 5728 5728 5729 5730 5733 5735 5737 5739 5739 5740 5740 5739 5737 5736 5734 5730 5727 5724 5721 5719 5717 5714 5712 5710 5708 5705 5703 5700 5698 5696 5694 5693 5691 5689 5689 5689
5768 5757 5753 5749 5751 5748 5737 5726 5730 5735 5737 5736 5735 5733 5733 5733 5733 5734 5735 5736 5737 5738 5739 5740 5738 5736 5735 5734 5730 5726 5722 5718 5715 5712 5711 5710 5708 5706 5703 5701 5698 5695 5693 5690 5688 5687 5684 5682 5683
5757 5771 5767 5756 5736 5720 5726 5707 5725 5731 5731 5734 5736 5735 5736 5738 5737 5737 5738 5737 5739 5741 5741 5740 5738 5736 5735 5733 5729 5723 5717 5712 5711 5710 5709 5708 5706 5704 5701 5699 5696 5693 5690 5687 5685 5683 5681 5678 5675
5769 5776 5764 5751 5732 5718 5720 5710 5717 5730 5727 5733 5738 5741 5742 5743 5743 5742 5743 5743 5743 5744 5742 5740 5737 5735 5734 5732 5728 5722 5716 5713 5711 5709 5707 5705 5704 5702 5700 5696 5693 5690 5687 5684 5682 5680 5677 5675 5672
5780 5763 5748 5734 5722 5703 5712 5711 5715 5728 5736 5740 5744 5747 5748 5748 5748 5747 5747 5746 5745 5745 5743 5740 5737 5734 5733 5730 5726 5722 5717 5712 5709 5707 5705 5703 5701 5700 5697 5694 5690 5687 5684 5681 5679 5676 5674 5670 5668
5771 5741 5715 5709 5696 5698 5717 5717 5722 5750 5757 5754 5752 5753 5754 5753 5751 5748 5747 5746 5745 5744 5743 5741 5737 5733 5731 5729 5725 5721 5717 5713 5710 5707 5704 5701 5698 5696 5694 5692 5688 5685 5682 5679 5676 5672 5669 5666 5663
5764 5747 5716 5702 5694 5699 5716 5714 5736 5763 5768 5767 5764 5761 5759 5756 5755 5754 5753 5751 5749 5747 5745 5741 5737 5734 5731 5728 5724 5721 5717 5713 5710 5707 5703 5700 5697 5695 5693 5689 5686 5683 5680 5676 5672 5668 5665 5662 5658
5763 5749 5744 5717 5704 5696 5706 5720 5745 5766 5763 5763 5762 5761 5759 5760 5760 5758 5757 5754 5752 5750 5747 5744 5738 5734 5731 5727 5724 5720 5717 5713 5710 5707 5704 5700 5697 5695 5691 5688 5684 5680 5677 5673 5669 5664 5660 5657 5653
5771 5758 5732 5713 5693 5689 5701 5710 5723 5748 5752 5758 5760 5761 5762 5763 5762 5761 5759 5758 5755 5753 5749 5745 5740 5736 5732 5728 5724 5721 5717 5714 5710 5706 5703 5699 5696 5693 5689 5686 5682 5678 5674 5670 5665 5660 5656 5652 5648
5758 5749 5734 5716 5709 5693 5690 5710 5752 5753 5757 5759 5762 5766 5766 5765 5764 5763 5762 5760 5756 5752 5747 5743 5739 5735 5731 5727 5723 5720 5716 5713 5709 5705 5702 5698 5695 5691 5687 5683 5679 5674 5670 5666 5661 5657 5652 5647 5643
5763 5752 5736 5715 5711 5706 5699 5718 5773 5770 5770 5768 5769 5772 5772 5770 5769 5766 5763 5758 5754 5749 5746 5742 5739 5735 5731 5727 5723 5719 5715 5712 5708 5704 5700 5697 5693 5689 5685 5680 5675 5671 5667 5663 5657 5652 5648 5643 5638